EXPRESS-AMU1

Last updated on Tue Sep 16 2025 00:02:48 GMT+0000 (Coordinated Universal Time)

1 41191U 15082A 25258.59168265 .00000000 00000+0 00000+0 0 9994 2 41191 0.0223 155.3183 0002484 41.7180 46.8526 1.00269481 35516
UTC large
Height (km)
Speed (km/s)
/
Latitude / Longitude
Inclination (degrees)
Orbital Period (minutes)
Azimuth
Elevation
Range (km)
Doppler Factor

Next 0 passes for location: London (51.5072 / 0.1276)

Sorry there are no passes over London.